METEOR 2-17 DEB

Satellite information

Favourite Embed

Satellite Type and Status

DEBRISIN ORBIT

Key statistics

Satellite METEOR 2-17 DEB at a glance.

Uptime

13833

Days in orbit

Revolutions

≈ 14.0

Per day

Orbit

LEO

Low Earth Orbit

Inclination

82.5

Latest

Satellite identification and parameters

Extended collection of information and parameters for METEOR 2-17 DEB.

Object identification

Identified? True

Debris? True

Object name: METEOR 2-17 DEB

International designator: 1988-005AB

Object number (NORAD): 35367

Object ID (CCSDS): 35367

Country: COMMONWEALTH OF INDEPENDENT STATES (CIS)

Current information (Y/N): Y

RCS size: SMALL

Orbital parameters

Period: 102.934 minutes

Inclination: 82.5195 deg

SMA: 7275.554 km

Apoapsis: 910.251 km

Periapsis: 884.588 km

RAAN: 58.1666 deg

Eccentricy: 0.0017636

Argument of periapsis: 150.8269 deg

Mean anomaly: 335.5296 deg

Mean motion: 13.98954598 rev/day

Mean motion (dot): 0.00001672 rev/day2

B* drag term: 0.0011469 1/REarth

Two-line elements (TLE)

Creation date: Dec. 11, 2025, 7:36 a.m.

Reference frame: TEME

Reference center: EARTH

Epoch: Dec. 10, 2025, 10:33 p.m. UTC

TLE line 0: 0 METEOR 2-17 DEB

TLE line 1: 1 35367U 88005AB 25344.93975872 .00001672 00000-0 11469-2 0 9992

TLE line 2: 2 35367 82.5195 58.1666 0017636 150.8269 335.5296 13.98954598307365

Live tracking on map

Real-time ground track for satellite METEOR 2-17 DEB.

In-orbit conjunctions

A list of the most updated potential collisions computed for object METEOR 2-17 DEB.

Target Orbit TCA Probability of collision Miss distance Type
MSX SSO 2025-12-09 09:29:55 0.001691825 113.0 (m) PAYLOAD
CZ-4B DEB LEO 2025-06-09 21:42:21 0.0001728007 70.0 (m) DEBRIS
FENGYUN 1C DEB SSO 2024-09-05 22:41:47 0.0001654345 92.0 (m) DEBRIS

Associated space launch

Second generation soviet meteorological satellite

METEOR 2-17 DEB was lifted into orbit during the mission ‘Tsiklon-3 | Meteor-2 17’, on board a Tsiklon-3 space rocket.

The launch took place on Jan. 30, 1988, 10:59 a.m. from 32/1.

For more information about the launch, click the button.

Launch to space Tsiklon-3 | Meteor-2 17
Tsiklon-3 | Meteor-2 17

Agency: N/A

Status: Launch Successful

Launch date: Jan. 30, 1988, 10:59 a.m. UTC

Rocket: Tsiklon-3

Launch pad: 32/1

Location: Plesetsk Cosmodrome, Russian Federation

...

Latest news about this satellite

There are no fresh news available about this satellite. Check back as we update our databases every day.


Newsletter sign-up

Weekly statistics, charts and insights to help you stay on top of the space industry.